User: anonymous   Login
Location: Kitchener
(43.2612°N, 80.5078°W)
Time: 05:02:36
(UTC+01:00)
Language:

Iridium 57 - Orbit

View from above orbital plane
View from above orbital plane
View from above satellite
View from above satellite

Ground track
Ground track

The orbit data is extracted from the following two-line orbital elements,

1 25273U 98019B   18021.59115496 +.00000066 +00000-0 +16630-4 0  9990
2 25273 086.3973 196.0305 0002182 092.4556 267.6889 14.34299276037154
Epoch (UTC): 21 January 2018 14:11:15
Eccentricity: 0.0002182
inclination: 86.3973°
perigee height: 776 km
apogee height: 779 km
right ascension of ascending node: 196.0305°
argument of perigee: 92.4556°
revolutions per day: 14.34299276
mean anomaly at epoch: 267.6889°
orbit number at epoch: 3715

The dashed part of the orbit path shows where the satellite is in the earth's shadow,  

DLR